Location: Estaing
(42.9333°N, 0.1833°W)
Time: 12:42:07
(UTC+00:00)

Daily predictions for brighter satellites

Satellite Brightness Start Highest point End
(mag) Time Altitude Azimuth Time Altitude Azimuth Time Altitude Azimuth
USA 215 3.7 17:24:47 10° SE 17:31:19 72° SW 17:37:53 10° NW
AQUARIUS 4.2 17:30:47 10° SSE 17:35:15 86° ENE 17:39:46 10° NNW
SJ-11-01 4.4 17:32:59 10° SSE 17:37:41 89° W 17:42:25 10° NNW
Cosmos 1455 Rocket 3.0 17:35:23 10° N 17:39:46 80° E 17:44:05 10° S
ATLAS CENTAUR R/B 2.6 17:36:23 10° S 17:40:32 31° ESE 17:44:37 10° NE
Cosmos 614 Rocket 4.1 17:35:27 10° SSW 17:40:41 86° WNW 17:45:56 10° NNE
SMAP 3.5 17:36:31 10° S 17:41:09 68° WSW 17:45:48 10° NNW
Cosmos 1867 3.7 17:37:47 10° NNW 17:43:08 53° NE 17:48:26 10° SE
Cosmos 407 Rocket 4.5 17:40:12 10° SSE 17:44:24 25° E 17:48:34 10° NE
NOSS 3-4 (A) 3.9 17:38:22 10° NNW 17:45:22 70° NE 17:53:18 10° SE
NOSS 3-4 (C) 3.9 17:38:29 10° NNW 17:45:28 70° NE 17:53:24 10° SE
NOAA 6 4.0 17:45:04 10° SSE 17:50:11 79° ENE 17:55:22 10° NNW
SKYMED 2 3.8 17:47:22 10° NNE 17:51:35 48° E 17:55:47 10° S
Tiangong -1.3 17:49:48 10° W 17:52:52 47° SSW 17:55:56 10° ESE
SL-4 R/B 1.8 17:51:48 10° WSW 17:55:13 70° NNW 17:58:33 12° NE
Meteor 2-17 Rocket 4.5 17:49:19 10° N 17:55:26 61° E 18:01:30 10° SSE
Cosmos 1340 Rocket 3.5 17:54:06 10° SSE 17:57:30 30° E 18:00:56 10° NNE
Cosmos 1408 3.7 17:55:34 10° SE 17:58:07 20° E 18:00:40 10° NE
USA 290 3.0 17:56:20 10° S 17:59:15 32° ESE 18:02:01 11° NE
ADEOS 4.0 17:55:38 10° S 18:00:48 67° WSW 18:06:01 10° NNW
BREEZE-M DEB (TANK) 2.6 17:59:42 10° W 18:02:37 65° N 18:07:22 14° ENE
Cosmos 1238 Rocket 3.8 18:03:40 10° NNW 18:08:16 69° W 18:13:43 10° S
YAOGAN 1 3.3 18:04:42 10° SE 18:08:26 30° ENE 18:12:12 10° N
Cosmos 2322 Rocket 3.7 18:05:23 10° SE 18:08:30 15° E 18:09:28 15° E
Cosmos 1607 3.9 18:03:38 10° SSW 18:09:40 66° ESE 18:15:47 10° NE
Cosmos 1140 Rocket 3.6 18:04:46 10° S 18:09:47 52° ESE 18:14:48 10° NNE
Cosmos 1703 3.5 18:06:59 10° SSW 18:10:46 71° W 18:14:36 10° N
NOSS 2-1 (E) 4.4 18:06:40 10° NNW 18:10:58 42° NE 18:16:56 10° ESE
Cosmos 1655 Rocket 4.0 18:04:58 10° N 18:11:11 59° E 18:17:18 10° SSE
Cosmos 2227 Rocket 3.8 18:08:28 10° NW 18:13:42 39° WSW 18:18:54 10° S
Cosmos 1975 Rocket 4.4 18:10:12 10° SSW 18:14:26 42° WNW 18:18:42 10° N
CZ-4 R/B 2.6 18:11:52 10° ESE 18:15:02 22° ENE 18:18:13 10° NNE
Cosmos 1536 Rocket 3.6 18:13:57 10° S 18:18:09 55° E 18:22:23 10° NNE
SL-16 R/B 3.1 18:13:44 10° SSE 18:18:28 28° ESE 18:21:31 17° ENE
Cosmos 1023 Rocket 4.4 18:14:19 10° S 18:19:27 67° ESE 18:24:33 10° NNE
COSMOS 2455 3.0 18:15:08 10° SW 18:21:08 75° WNW 18:27:12 10° NNE
CZ-4 R/B 4.4 18:19:20 10° SSE 18:23:25 87° WSW 18:27:33 10° NNW
Cosmos 2369 4.1 18:21:34 10° SW 18:27:10 65° WNW 18:32:49 10° NNE
Cosmos 44 3.8 18:23:29 10° SW 18:27:40 48° NW 18:31:59 10° NNE
Cosmos 1892 3.3 18:25:13 10° SSE 18:28:32 32° E 18:29:28 28° ENE
YAOGAN 3 4.5 18:24:32 10° SSE 18:28:52 78° ENE 18:33:13 10° N
Cosmos 2251 Rocket 3.6 18:28:06 10° SSW 18:33:26 82° WNW 18:38:50 10° NNE
Cosmos 1606 Rocket 4.2 18:31:00 10° NNE 18:34:51 31° ENE 18:35:44 28° E
Cosmos 1980 Rocket 2.9 18:32:59 10° SW 18:38:30 53° WNW 18:44:05 10° NNE
COSMO-SKYMED 1 3.5 18:35:25 10° N 18:39:38 50° WNW 18:43:49 10° SSW
Meteor 1-11 4.5 18:36:02 10° SSE 18:41:34 47° E 18:47:07 10° NNE
Lacrosse 5 3.1 18:38:06 10° S 18:42:06 24° ESE 18:42:20 24° ESE
Cosmos 1328 3.7 18:39:45 10° S 18:43:45 88° W 18:47:45 10° N
Spot 1 4.3 18:43:11 37° ENE 18:43:46 39° E 18:47:35 10° S
BlueWalker 3 3.1 18:41:35 10° W 18:45:12 36° NNW 18:46:49 25° NNE
PSLV R/B 3.5 18:44:39 10° SSE 18:48:16 87° WSW 18:51:57 10° NNW
Okean O Rocket 1.8 18:47:21 20° SE 18:50:01 47° ENE 18:54:15 10° N
Feng Yun 1-1 Rocket 4.4 18:47:35 10° SE 18:53:00 50° ENE 18:58:19 10° N
NOSS 2-1 (C) 4.1 18:54:03 10° NW 18:58:40 82° SW 19:05:19 10° SSE
Cosmos 2263 Rocket 2.6 18:53:59 10° NNW 18:59:29 62° WSW 19:04:56 10° S
Cosmos 1825 4.0 18:56:02 10° SSE 18:57:04 18° SSE 18:57:04 18° SSE
Cosmos 1553 Rocket 4.1 18:54:22 10° SSE 19:00:03 44° E 19:05:48 10° NNE
Timation 2 Rocket 3.9 18:53:59 10° NNW 19:00:13 89° ENE 19:06:41 10° SSE
MINOTAUR 4 R/B 4.1 18:59:27 36° N 19:00:41 72° WNW 19:04:04 10° SSW
BREEZE M DEB (TANK) 2.3 18:57:12 10° WNW 19:01:26 77° SW 19:01:26 77° SW
Cosmos 2228 3.2 19:00:12 10° NNW 19:04:25 67° W 19:08:35 10° S
Cosmos 1763 Rocket 3.7 19:01:08 10° N 19:05:58 47° ENE 19:05:58 47° ENE
NOSS 2-1 (D) 4.3 19:02:22 10° NW 19:06:59 71° SW 19:13:35 10° SSE
ISS -1.9 19:08:11 10° NW 19:09:56 23° NNW 19:09:56 23° NNW
IRIDIUM 106 4.3 19:07:39 10° N 19:18:03 - SSE 19:12:36 56° ENE
SL-08 R/B 4.5 19:08:12 10° N 19:14:19 55° ENE 19:17:35 28° SE
CZ-4B R/B 3.3 19:10:48 10° S 19:16:05 70° WSW 19:21:28 10° NNW
Cosmos 676 Rocket 3.9 19:12:44 10° S 19:18:00 67° ESE 19:18:23 64° E
ATLAS CENTAUR R/B 3.0 19:14:39 10° WSW 19:19:02 36° NW 19:21:07 24° N
ATLAS 2AS CENTAUR R/B 2.7 19:13:27 10° NNW 19:20:23 57° NE 19:21:32 51° E
Cosmos 2227 4.3 19:16:56 10° NNW 19:22:42 76° WSW 19:27:19 16° SSE
Tiangong 0.7 19:27:19 10° WSW 19:28:46 15° SW 19:28:46 15° SW
Nadezhda 2 Rocket 4.4 19:23:21 10° N 19:29:36 87° W 19:35:44 10° S
Cosmos 2333 Rocket 4.4 19:26:16 10° SSE 19:26:23 11° SSE 19:26:23 11° SSE
Cosmos 1844 Rocket 3.4 19:27:10 10° NNW 19:31:00 39° NNE 19:31:00 39° NNE
SL-4 R/B 3.9 19:32:02 10° WNW 19:33:53 20° NW 19:33:53 20° NW
Cosmos 2360 Rocket 3.2 19:38:17 10° S 19:41:22 34° S 19:41:22 34° S
CZ-4 R/B 3.1 19:45:58 10° SSW 19:49:44 33° W 19:53:29 10° NNW
Cosmos 2322 Rocket 2.3 19:46:13 10° SSW 19:51:22 71° WSW 19:51:22 71° WSW
SL-16 R/B 3.1 19:56:54 10° SW 20:02:18 45° WNW 20:03:27 39° NNW
Lacrosse 5 3.9 20:19:38 10° WSW 20:21:35 23° WSW 20:21:35 23° WSW
Okean O Rocket 4.3 20:24:43 13° WSW 20:26:37 16° W 20:29:24 10° NW
ATLAS 2AS CENTAUR R/B 4.4 21:05:02 10° NW 21:09:01 26° W 21:09:01 26° W
